TimeEST,TemperatureF,Dew PointF,Humidity,Sea Level PressureIn,VisibilityMPH,Wind Direction,Wind SpeedMPH,Gust SpeedMPH,PrecipitationIn,Events,Conditions,WindDirDegrees,DateUTC
12:51 AM,32.0,16.0,52,30.09,10.0,NNW,11.5,18.4,N/A,,Clear,330,2012-12-06 05:51:00
1:51 AM,30.9,16.0,54,30.13,10.0,NNW,5.8,-,N/A,,Clear,330,2012-12-06 06:51:00
2:51 AM,30.0,16.0,56,30.15,10.0,NNW,4.6,-,N/A,,Partly Cloudy,330,2012-12-06 07:51:00
3:51 AM,30.0,15.1,54,30.17,10.0,NW,6.9,-,N/A,,Clear,320,2012-12-06 08:51:00
4:51 AM,30.0,15.1,54,30.20,10.0,NNW,10.4,18.4,N/A,,Clear,340,2012-12-06 09:51:00
5:51 AM,28.9,15.1,56,30.22,10.0,NNW,11.5,16.1,N/A,,Clear,340,2012-12-06 10:51:00
6:51 AM,28.9,15.1,56,30.25,10.0,NNW,8.1,-,N/A,,Clear,330,2012-12-06 11:51:00
7:51 AM,28.9,16.0,58,30.26,10.0,WNW,3.5,-,N/A,,Clear,300,2012-12-06 12:51:00
8:51 AM,32.0,16.0,52,30.29,10.0,WNW,6.9,-,N/A,,Clear,300,2012-12-06 13:51:00
9:51 AM,34.0,15.1,46,30.31,10.0,NNW,12.7,-,N/A,,Clear,330,2012-12-06 14:51:00
10:51 AM,36.0,16.0,44,30.28,10.0,WNW,10.4,-,N/A,,Clear,300,2012-12-06 15:51:00
11:51 AM,37.0,16.0,42,30.27,10.0,WNW,13.8,-,N/A,,Clear,300,2012-12-06 16:51:00
12:51 PM,39.0,16.0,39,30.24,10.0,North,10.4,-,N/A,,Clear,350,2012-12-06 17:51:00
1:51 PM,39.9,14.0,35,30.24,10.0,North,4.6,-,N/A,,Clear,350,2012-12-06 18:51:00
2:51 PM,39.0,16.0,39,30.26,10.0,WNW,9.2,-,N/A,,Clear,300,2012-12-06 19:51:00
3:51 PM,37.0,14.0,39,30.28,10.0,North,-9999.0,-,N/A,,Clear,0,2012-12-06 20:51:00
4:04 PM,35.6,14.0,41,30.27,10.0,Calm,Calm,-,N/A,,Clear,0,2012-12-06 21:04:00
4:51 PM,34.0,15.1,46,30.28,10.0,NNW,3.5,-,N/A,,Clear,330,2012-12-06 21:51:00
5:51 PM,30.9,15.1,52,30.29,10.0,West,4.6,-,N/A,,Clear,270,2012-12-06 22:51:00
6:51 PM,26.1,16.0,66,30.30,10.0,West,3.5,-,N/A,,Clear,280,2012-12-06 23:51:00
7:51 PM,28.0,18.0,66,30.30,10.0,Calm,Calm,-,N/A,,Clear,0,2012-12-07 00:51:00
8:51 PM,27.0,17.1,66,30.30,10.0,Calm,Calm,-,N/A,,Clear,0,2012-12-07 01:51:00
9:51 PM,25.0,18.0,75,30.30,10.0,Calm,Calm,-,N/A,,Clear,0,2012-12-07 02:51:00
10:51 PM,25.0,18.0,75,30.30,10.0,Calm,Calm,-,N/A,,Clear,0,2012-12-07 03:51:00
11:51 PM,24.1,18.0,77,30.29,10.0,Calm,Calm,-,N/A,,Clear,0,2012-12-07 04:51:00